Date,Time,Curr(A),GSpd(kts),VFAS(V),RSSI(dB),RxBt(V),GAlt(m),GPS, CNSP,Date,SK,SW,Gaz,Lot,S1,S2,S3,LS,RS,SA,SB,SC,SD,SE,SF,SG,SH,LSW,TxBat(V)
2023-09-18,10:03:01.080,0.4,0.0,12.20,89,5.0,0.0,,0,   0-00-00 00:00:00,2,4,-1024,2,18,918,-1024,41,-618,1,-1,-1,1,-1,-1,0,-1,0x0000000000000000,7.5
2023-09-18,10:03:02.560,0.4,0.0,12.20,89,5.0,0.0,,0,   0-00-00 00:00:00,2,2,-1024,1,18,917,-1024,40,-616,1,-1,-1,1,-1,-1,0,-1,0x0000000000000000,7.5
2023-09-18,10:03:04.060,0.4,0.0,12.19,89,5.0,0.0,,0,   0-00-00 00:00:00,2,2,-1024,2,18,917,-1024,40,-616,1,-1,-1,1,-1,-1,0,-1,0x0000000000000000,7.5
2023-09-18,10:03:05.560,0.4,0.0,12.20,89,5.0,0.0,,0,2000-00-00 00:00:00,4,5,-1024,1,17,917,-1024,42,-618,1,-1,-1,1,-1,-1,0,-1,0x0000000000000000,7.5
2023-09-18,10:03:07.060,0.4,0.0,12.20,88,5.0,0.0,,0,2000-00-00 00:00:00,2,2,-1024,1,18,917,-1024,42,-616,1,-1,-1,1,-1,-1,0,-1,0x0000000000000000,7.5
2023-09-18,10:03:08.560,0.4,0.0,12.20,88,5.0,0.0,,0,2000-00-00 00:00:00,4,2,-1024,2,19,917,-1024,41,-617,1,-1,-1,1,-1,-1,0,-1,0x0000000000000000,7.5
2023-09-18,10:03:10.060,0.4,0.0,12.19,89,5.0,0.0,,1,2000-00-00 00:00:00,1,2,-1024,1,18,917,-1024,41,-616,1,-1,-1,1,-1,-1,0,-1,0x0000000000000000,7.5
2023-09-18,10:03:11.560,0.4,0.0,12.19,90,5.0,0.0,,1,2000-00-00 00:00:00,2,4,-1024,1,19,917,-1024,41,-616,1,-1,-1,1,-1,-1,0,-1,0x0000000000000000,7.5
2023-09-18,10:03:13.060,0.4,0.0,12.19,90,5.0,0.0,,1,2000-00-00 00:00:00,2,4,-1024,1,18,917,-1024,41,-616,1,-1,-1,1,-1,-1,0,-1,0x0000000000000000,7.5
2023-09-18,10:03:14.560,0.4,0.0,12.19,90,5.0,0.0,,1,2000-00-00 00:00:00,2,2,-1024,1,18,917,-1024,40,-616,1,-1,-1,1,-1,-1,0,-1,0x0000000000000000,7.5
2023-09-18,10:03:16.060,0.4,0.0,12.19,90,5.0,0.0,,1,2000-00-00 00:00:00,4,2,-1024,1,18,918,-1024,41,-615,1,-1,-1,1,-1,-1,0,-1,0x0000000000000000,7.5
2023-09-18,10:03:17.560,0.4,0.0,12.19,90,5.0,0.0,,1,2000-00-00 00:00:00,2,5,-1024,2,19,917,-1024,41,-616,1,-1,-1,1,-1,-1,0,-1,0x0000000000000000,7.5
2023-09-18,10:03:19.060,0.4,0.0,12.19,90,5.0,0.0,,2,2000-00-00 00:00:00,2,2,-1024,2,19,917,-1024,41,-617,1,-1,-1,1,-1,-1,0,-1,0x0000000000000000,7.5
2023-09-18,10:03:20.560,0.4,0.0,12.19,89,5.0,0.0,,2,2000-00-00 00:00:00,2,4,-1024,2,18,917,-1024,41,-618,1,-1,-1,1,-1,-1,0,-1,0x0000000000000000,7.5
2023-09-18,10:03:22.060,0.4,0.0,12.19,90,5.0,0.0,,2,2000-00-00 00:00:00,0,4,-1024,1,18,916,-1024,40,-616,1,-1,-1,1,-1,-1,0,-1,0x0000000000000000,7.5
2023-09-18,10:03:23.560,0.4,0.0,12.19,91,5.0,0.0,,2,2000-00-00 00:00:00,2,2,-1024,1,18,917,-1024,39,-616,1,-1,-1,1,-1,-1,0,-1,0x0000000000000000,7.5
2023-09-18,10:03:25.060,0.4,0.0,12.19,88,5.0,0.0,,2,2000-00-00 00:00:00,5,4,-1024,1,18,917,-1024,41,-618,1,-1,-1,1,-1,-1,0,-1,0x0000000000000000,7.5
2023-09-18,10:03:26.560,0.4,0.0,12.19,90,5.0,0.0,,2,2000-00-00 00:00:00,4,2,-832,2,19,917,-1024,40,-617,1,-1,-1,1,-1,-1,0,-1,0x0000000000000000,7.5
2023-09-18,10:03:28.060,0.8,0.0,12.17,90,5.0,0.0,,3,2000-00-00 00:00:00,1,2,-541,1,17,917,-1024,41,-617,1,-1,-1,1,-1,-1,0,-1,0x0000000000000000,7.5
2023-09-18,10:03:29.560,1.5,0.0,12.16,89,5.0,0.0,,3,2000-00-00 00:00:00,0,2,-549,1,18,917,-1024,40,-617,1,-1,-1,1,-1,-1,0,-1,0x0000000000000000,7.5
2023-09-18,10:03:31.060,2.0,0.0,12.16,90,5.0,0.0,,4,2000-00-00 00:00:00,2,4,-437,1,18,917,-1024,41,-617,1,-1,-1,1,-1,-1,0,-1,0x0000000000000000,7.5
2023-09-18,10:03:32.560,3.6,0.0,12.13,91,5.0,0.0,,5,2000-00-00 00:00:00,1,2,-421,1,18,917,-1024,42,-616,1,-1,-1,1,-1,-1,0,-1,0x0000000000000000,7.5
2023-09-18,10:03:34.070,3.5,0.0,12.11,88,5.0,0.0,,7,2000-00-00 00:00:00,1,2,-422,1,18,917,-1024,41,-617,1,-1,-1,1,-1,-1,0,-1,0x0000000000000000,7.5
2023-09-18,10:03:35.570,3.5,0.0,12.11,88,5.0,0.0,,8,2000-00-00 00:00:00,4,4,-421,1,19,917,-1024,41,-615,1,-1,-1,1,-1,-1,0,-1,0x0000000000000000,7.5
2023-09-18,10:03:37.070,3.5,0.0,12.11,89,5.0,0.0,,10,2000-00-00 00:00:00,2,2,-422,1,18,917,-1024,41,-615,1,-1,-1,1,-1,-1,0,-1,0x0000000000000000,7.5
2023-09-18,10:03:38.570,3.5,0.0,12.09,88,5.0,0.0,,11,2000-00-00 00:00:00,2,2,-423,1,18,917,-1024,41,-617,1,-1,-1,1,-1,-1,0,-1,0x0000000000000000,7.5
2023-09-18,10:03:40.070,3.5,0.0,12.09,88,5.0,0.0,,13,2000-00-00 00:00:00,2,1,-423,1,18,916,-1024,41,-617,1,-1,-1,1,-1,-1,0,-1,0x0000000000000000,7.5
2023-09-18,10:03:41.570,3.5,0.0,12.09,89,5.0,0.0,,14,2000-00-00 00:00:00,2,1,-421,1,18,917,-1024,41,-617,1,-1,-1,1,-1,-1,0,-1,0x0000000000000000,7.5
2023-09-18,10:03:43.070,3.8,0.0,12.08,90,5.0,0.0,,15,2000-00-00 00:00:00,1,-79,-421,49,18,917,-1024,39,-618,1,-1,-1,1,-1,-1,0,-1,0x0000000000000000,7.5
2023-09-18,10:03:44.570,3.9,0.0,12.06,90,5.0,0.0,,17,2000-00-00 00:00:00,2,-144,-421,390,20,917,-1024,40,-616,1,-1,-1,1,-1,-1,0,-1,0x0000000000000000,7.5
2023-09-18,10:03:46.070,3.5,0.0,12.07,90,5.0,0.0,,19,2000-00-00 00:00:00,2,4,-425,1,18,917,-1024,41,-617,1,-1,-1,1,-1,-1,0,-1,0x0000000000000000,7.5
2023-09-18,10:03:47.570,3.5,0.0,12.07,89,5.0,0.0,,20,2000-00-00 00:00:00,1,1,-422,2,18,917,-1024,41,-617,1,-1,-1,1,-1,-1,0,-1,0x0000000000000000,7.5
2023-09-18,10:03:49.070,3.5,0.0,12.07,89,5.0,0.0,,22,2000-00-00 00:00:00,1,4,-421,2,19,916,-1024,41,-616,1,-1,-1,1,-1,-1,0,-1,0x0000000000000000,7.5
2023-09-18,10:03:50.570,9.9,0.0,11.95,89,5.0,0.0,,23,2000-00-00 00:00:00,0,4,-191,2,18,917,-1024,41,-617,1,-1,-1,1,-1,-1,0,-1,0x0000000000000000,7.5
2023-09-18,10:03:52.070,7.6,0.0,11.97,89,5.0,0.0,,26,2000-00-00 00:00:00,1,4,-244,2,18,916,-1024,40,-618,1,-1,-1,1,-1,-1,0,-1,0x0000000000000000,7.5
2023-09-18,10:03:53.570,7.6,0.0,11.96,88,5.0,0.0,,30,2000-00-00 00:00:00,2,4,-244,2,18,917,-1024,43,-617,1,-1,-1,1,-1,-1,0,-1,0x0000000000000000,7.5
2023-09-18,10:03:55.070,7.5,0.0,11.94,88,5.0,0.0,,33,2000-00-00 00:00:00,1,4,-244,4,18,916,-1024,43,-620,1,-1,-1,1,-1,-1,0,-1,0x0000000000000000,7.5
2023-09-18,10:03:56.570,7.5,0.0,11.94,89,5.0,0.0,,36,2000-00-00 00:00:00,2,4,-246,2,19,917,-1024,42,-617,1,-1,-1,1,-1,-1,0,-1,0x0000000000000000,7.5
2023-09-18,10:03:58.070,7.5,0.0,11.94,88,5.0,0.0,,39,2000-00-00 00:00:00,2,4,-244,2,18,917,-1024,41,-617,1,-1,-1,1,-1,-1,0,-1,0x0000000000000000,7.5
2023-09-18,10:03:59.570,7.6,0.0,11.93,90,5.0,0.0,,42,2000-00-00 00:00:00,4,4,-243,2,18,917,-1024,41,-616,1,-1,-1,1,-1,-1,0,-1,0x0000000000000000,7.5
2023-09-18,10:04:01.070,7.5,0.0,11.92,89,5.0,0.0,,45,2000-00-00 00:00:00,2,4,-244,4,18,916,-1024,41,-616,1,-1,-1,1,-1,-1,0,-1,0x0000000000000000,7.5
2023-09-18,10:04:02.570,7.6,0.0,11.92,89,5.0,0.0,,48,2000-00-00 00:00:00,2,4,-244,2,18,917,-1024,42,-617,1,-1,-1,1,-1,-1,0,-1,0x0000000000000000,7.5
2023-09-18,10:04:04.070,7.7,0.0,11.91,88,5.0,0.0,,52,2000-00-00 00:00:00,2,5,-244,2,18,918,-1024,41,-618,1,-1,-1,1,-1,-1,0,-1,0x0000000000000000,7.5
2023-09-18,10:04:05.570,7.6,0.0,11.90,89,5.0,0.0,,55,2000-00-00 00:00:00,2,4,-246,2,17,917,-1024,41,-616,1,-1,-1,1,-1,-1,0,-1,0x0000000000000000,7.5
2023-09-18,10:04:07.070,7.5,0.0,11.90,89,5.0,0.0,,58,2000-00-00 00:00:00,2,4,-246,2,18,916,-1024,40,-617,1,-1,-1,1,-1,-1,0,-1,0x0000000000000000,7.5
2023-09-18,10:04:08.570,7.5,0.0,11.88,88,5.0,0.0,,61,2000-00-00 00:00:00,2,4,-243,2,18,917,-1024,41,-618,1,-1,-1,1,-1,-1,0,-1,0x0000000000000000,7.5
2023-09-18,10:04:10.070,7.5,0.0,11.88,89,5.0,0.0,,64,2000-00-00 00:00:00,2,5,-246,2,19,916,-1024,41,-617,1,-1,-1,1,-1,-1,0,-1,0x0000000000000000,7.5
2023-09-18,10:04:11.570,7.6,0.0,11.88,90,5.0,0.0,,67,2000-00-00 00:00:00,1,4,-244,1,17,917,-1024,40,-617,1,-1,-1,1,-1,-1,0,-1,0x0000000000000000,7.5
2023-09-18,10:04:13.070,7.5,0.0,11.86,89,5.0,0.0,,70,2000-00-00 00:00:00,1,4,-244,1,18,915,-1024,42,-617,1,-1,-1,1,-1,-1,0,-1,0x0000000000000000,7.5
2023-09-18,10:04:14.570,7.5,0.0,11.86,89,5.0,0.0,,74,2000-00-00 00:00:00,1,5,-243,1,18,917,-1024,41,-615,1,-1,-1,1,-1,-1,0,-1,0x0000000000000000,7.5
2023-09-18,10:04:16.070,7.4,0.0,11.87,87,5.0,0.0,,77,2000-00-00 00:00:00,5,5,-247,1,19,917,-1024,41,-617,1,-1,-1,1,-1,-1,0,-1,0x0000000000000000,7.5
2023-09-18,10:04:17.570,7.3,0.0,11.86,87,5.0,0.0,,80,2000-00-00 00:00:00,0,4,-244,2,19,918,-1024,41,-618,1,-1,-1,1,-1,-1,0,-1,0x0000000000000000,7.5
2023-09-18,10:04:19.070,7.3,0.0,11.86,87,5.0,0.0,,83,2000-00-00 00:00:00,1,1,-246,4,18,917,-1024,40,-617,1,-1,-1,1,-1,-1,0,-1,0x0000000000000000,7.5
2023-09-18,10:04:20.570,7.4,0.0,11.86,87,5.0,0.0,,86,2000-00-00 00:00:00,2,5,-246,2,18,916,-1024,41,-617,1,-1,-1,1,-1,-1,0,-1,0x0000000000000000,7.5
2023-09-18,10:04:22.070,7.4,0.0,11.86,89,5.0,0.0,,89,2000-00-00 00:00:00,2,4,-244,2,19,917,-1024,41,-617,1,-1,-1,1,-1,-1,0,-1,0x0000000000000000,7.5
2023-09-18,10:04:23.570,7.3,0.0,11.86,88,5.0,0.0,,92,2000-00-00 00:00:00,1,4,-247,0,19,917,-1024,41,-616,1,-1,-1,1,-1,-1,0,-1,0x0000000000000000,7.5
2023-09-18,10:04:25.070,7.3,0.0,11.85,87,5.0,0.0,,95,2000-00-00 00:00:00,2,4,-244,1,17,917,-1024,41,-618,1,-1,-1,1,-1,-1,0,-1,0x0000000000000000,7.5
2023-09-18,10:04:26.570,7.3,0.0,11.84,88,5.0,0.0,,98,2000-00-00 00:00:00,2,5,-244,1,18,917,-1024,41,-615,1,-1,-1,1,-1,-1,0,-1,0x0000000000000000,7.5
2023-09-18,10:04:28.070,7.3,0.0,11.84,89,5.0,0.0,,101,2000-00-00 00:00:00,2,5,-243,4,18,917,-1024,41,-617,1,-1,-1,1,-1,-1,0,-1,0x0000000000000000,7.5
2023-09-18,10:04:29.570,7.3,0.0,11.84,88,5.0,0.0,,104,2000-00-00 00:00:00,1,4,-250,2,18,917,-1024,41,-617,1,-1,-1,1,-1,-1,0,-1,0x0000000000000000,7.5
2023-09-18,10:04:31.070,7.3,0.0,11.83,89,5.0,0.0,,107,2000-00-00 00:00:00,2,5,-244,4,18,918,-1024,41,-615,1,-1,-1,1,-1,-1,0,-1,0x0000000000000000,7.5
2023-09-18,10:04:32.570,7.3,0.0,11.82,89,5.0,0.0,,110,2000-00-00 00:00:00,4,4,-244,2,18,917,-1024,41,-617,1,-1,-1,1,-1,-1,0,-1,0x0000000000000000,7.5
2023-09-18,10:04:34.070,7.3,0.0,11.82,88,5.0,0.0,,113,2000-00-00 00:00:00,2,5,-246,2,18,917,-1024,41,-616,1,-1,-1,1,-1,-1,0,-1,0x0000000000000000,7.5
2023-09-18,10:04:35.570,7.3,0.0,11.82,91,5.0,0.0,,116,2000-00-00 00:00:00,4,6,-246,2,19,917,-1024,41,-617,1,-1,-1,1,-1,-1,0,-1,0x0000000000000000,7.5
2023-09-18,10:04:37.070,7.3,0.0,11.81,89,5.0,0.0,,119,2000-00-00 00:00:00,2,4,-243,2,19,918,-1024,41,-617,1,-1,-1,1,-1,-1,0,-1,0x0000000000000000,7.5
2023-09-18,10:04:38.570,7.4,0.0,11.80,89,5.0,0.0,,122,2000-00-00 00:00:00,2,2,-244,2,18,917,-1024,41,-616,1,-1,-1,1,-1,-1,0,-1,0x0000000000000000,7.5
2023-09-18,10:04:40.070,7.3,0.0,11.80,87,5.0,0.0,,126,2000-00-00 00:00:00,2,4,-244,2,18,917,-1024,40,-616,1,-1,-1,1,-1,-1,0,-1,0x0000000000000000,7.5
2023-09-18,10:04:41.570,7.3,0.0,11.80,88,5.0,0.0,,129,2000-00-00 00:00:00,2,5,-246,2,18,916,-1024,41,-616,1,-1,-1,1,-1,-1,0,-1,0x0000000000000000,7.5
2023-09-18,10:04:43.070,7.3,0.0,11.80,89,5.0,0.0,,132,2000-00-00 00:00:00,1,4,-247,2,19,916,-1024,40,-616,1,-1,-1,1,-1,-1,0,-1,0x0000000000000000,7.5
2023-09-18,10:04:44.570,7.3,0.0,11.78,89,5.0,0.0,,135,2000-00-00 00:00:00,2,5,-246,1,18,917,-1024,41,-616,1,-1,-1,1,-1,-1,0,-1,0x0000000000000000,7.5
2023-09-18,10:04:46.070,7.4,0.0,11.78,90,5.0,0.0,,138,2000-00-00 00:00:00,4,4,-246,1,19,917,-1024,42,-617,1,-1,-1,1,-1,-1,0,-1,0x0000000000000000,7.5
2023-09-18,10:04:47.570,7.5,0.0,11.78,90,5.0,0.0,,141,2000-00-00 00:00:00,4,5,-246,2,19,917,-1024,41,-618,1,-1,-1,1,-1,-1,0,-1,0x0000000000000000,7.5
2023-09-18,10:04:49.070,7.4,0.0,11.77,87,5.0,0.0,,144,2000-00-00 00:00:00,2,4,-244,2,18,917,-1024,42,-615,1,-1,-1,1,-1,-1,0,-1,0x0000000000000000,7.5
2023-09-18,10:04:50.570,7.4,0.0,11.77,89,5.0,0.0,,147,2000-00-00 00:00:00,1,4,-243,2,18,916,-1024,42,-618,1,-1,-1,1,-1,-1,0,-1,0x0000000000000000,7.5
2023-09-18,10:04:52.070,7.4,0.0,11.76,89,5.0,0.0,,150,2000-00-00 00:00:00,1,5,-244,2,18,917,-1024,42,-617,1,-1,-1,1,-1,-1,0,-1,0x0000000000000000,7.5
2023-09-18,10:04:53.570,7.4,0.0,11.76,89,5.0,0.0,,153,2000-00-00 00:00:00,0,4,-241,2,18,916,-1024,42,-617,1,-1,-1,1,-1,-1,0,-1,0x0000000000000000,7.5
2023-09-18,10:04:55.070,7.4,0.0,11.76,89,5.0,0.0,,156,2000-00-00 00:00:00,2,4,-246,2,18,918,-1024,41,-615,1,-1,-1,1,-1,-1,0,-1,0x0000000000000000,7.5
2023-09-18,10:04:56.570,7.4,0.0,11.76,89,5.0,0.0,,159,2000-00-00 00:00:00,2,6,-244,2,18,918,-1024,42,-616,1,-1,-1,1,-1,-1,0,-1,0x0000000000000000,7.5
2023-09-18,10:04:58.070,7.4,0.0,11.76,90,5.0,0.0,,162,2000-00-00 00:00:00,2,4,-246,2,18,916,-1024,41,-618,1,-1,-1,1,-1,-1,0,-1,0x0000000000000000,7.5
2023-09-18,10:04:59.570,7.4,0.0,11.75,89,5.0,0.0,,166,2000-00-00 00:00:00,2,4,-243,2,19,917,-1024,42,-616,1,-1,-1,1,-1,-1,0,-1,0x0000000000000000,7.5
2023-09-18,10:05:01.070,7.4,0.0,11.75,88,5.0,0.0,,169,2000-00-00 00:00:00,5,4,-243,2,18,916,-1024,42,-617,1,-1,-1,1,-1,-1,0,-1,0x0000000000000000,7.5
2023-09-18,10:05:02.570,7.4,0.0,11.75,88,5.0,0.0,,172,2000-00-00 00:00:00,1,5,-244,5,19,917,-1024,42,-616,1,-1,-1,1,-1,-1,0,-1,0x0000000000000000,7.5
2023-09-18,10:05:04.070,7.4,0.0,11.75,89,5.0,0.0,,175,2000-00-00 00:00:00,2,2,-244,1,18,917,-1024,43,-617,1,-1,-1,1,-1,-1,0,-1,0x0000000000000000,7.5
2023-09-18,10:05:05.570,7.4,0.0,11.75,89,5.0,0.0,,178,2000-00-00 00:00:00,4,6,-243,4,19,916,-1024,41,-615,1,-1,-1,1,-1,-1,0,-1,0x0000000000000000,7.5
2023-09-18,10:05:07.070,7.3,0.0,11.74,90,5.0,0.0,,181,2000-00-00 00:00:00,2,5,-244,2,17,917,-1024,42,-616,1,-1,-1,1,-1,-1,0,-1,0x0000000000000000,7.5
2023-09-18,10:05:08.570,7.4,0.0,11.74,89,5.0,0.0,,184,2000-00-00 00:00:00,4,4,-247,2,19,918,-1024,41,-616,1,-1,-1,1,-1,-1,0,-1,0x0000000000000000,7.5
2023-09-18,10:05:10.070,7.4,0.0,11.73,89,5.0,0.0,,187,2000-00-00 00:00:00,0,4,-243,1,19,917,-1024,42,-618,1,-1,-1,1,-1,-1,0,-1,0x0000000000000000,7.5
2023-09-18,10:05:11.610,7.4,0.0,11.73,88,5.0,0.0,,190,2000-00-00 00:00:00,4,4,-247,2,18,917,-1024,42,-617,1,-1,-1,1,-1,-1,0,-1,0x0000000000000000,7.5
2023-09-18,10:05:13.110,7.4,0.0,11.73,91,5.0,0.0,,193,2000-00-00 00:00:00,2,4,-241,2,18,916,-1024,41,-617,1,-1,-1,1,-1,-1,0,-1,0x0000000000000000,7.5
2023-09-18,10:05:14.610,7.4,0.0,11.73,85,5.0,0.0,,196,2000-00-00 00:00:00,5,5,-244,2,18,917,-1024,42,-617,1,-1,-1,1,-1,-1,0,-1,0x0000000000000000,7.5
2023-09-18,10:05:16.110,7.4,0.0,11.72,85,5.0,0.0,,199,2000-00-00 00:00:00,1,4,-244,2,18,917,-1024,41,-616,1,-1,-1,1,-1,-1,0,-1,0x0000000000000000,7.5
2023-09-18,10:05:17.610,7.3,0.0,11.71,85,5.0,0.0,,203,2000-00-00 00:00:00,5,5,-244,2,18,916,-1024,41,-617,1,-1,-1,1,-1,-1,0,-1,0x0000000000000000,7.5
2023-09-18,10:05:19.110,7.4,0.0,11.71,87,5.0,0.0,,206,2000-00-00 00:00:00,2,5,-244,2,18,918,-1024,40,-617,1,-1,-1,1,-1,-1,0,-1,0x0000000000000000,7.5
2023-09-18,10:05:20.610,7.3,0.0,11.71,86,5.0,0.0,,209,2000-00-00 00:00:00,2,2,-247,2,18,917,-1024,41,-617,1,-1,-1,1,-1,-1,0,-1,0x0000000000000000,7.5
2023-09-18,10:05:22.110,7.4,0.0,11.71,85,5.0,0.0,,212,2000-00-00 00:00:00,1,4,-246,2,18,917,-1024,41,-617,1,-1,-1,1,-1,-1,0,-1,0x0000000000000000,7.5
2023-09-18,10:05:23.610,7.4,0.0,11.71,86,5.0,0.0,,215,2000-00-00 00:00:00,2,4,-244,2,18,916,-1024,42,-617,1,-1,-1,1,-1,-1,0,-1,0x0000000000000000,7.5
2023-09-18,10:05:25.110,7.4,0.0,11.70,84,5.0,0.0,,218,2000-00-00 00:00:00,4,4,-244,2,19,917,-1024,41,-616,1,-1,-1,1,-1,-1,0,-1,0x0000000000000000,7.5
2023-09-18,10:05:26.610,7.4,0.0,11.69,86,5.0,0.0,,221,2000-00-00 00:00:00,1,4,-246,1,18,917,-1024,42,-616,1,-1,-1,1,-1,-1,0,-1,0x0000000000000000,7.5
2023-09-18,10:05:28.110,7.3,0.0,11.69,87,5.0,0.0,,224,2000-00-00 00:00:00,2,4,-246,1,19,917,-1024,42,-616,1,-1,-1,1,-1,-1,0,-1,0x0000000000000000,7.5
2023-09-18,10:05:29.610,7.4,0.0,11.69,86,5.0,0.0,,227,2000-00-00 00:00:00,2,6,-246,2,18,918,-1024,42,-617,1,-1,-1,1,-1,-1,0,-1,0x0000000000000000,7.5
2023-09-18,10:05:31.140,7.4,0.0,11.69,87,5.0,0.0,,230,2000-00-00 00:00:00,2,4,-246,2,19,916,-1024,41,-617,1,-1,-1,1,-1,-1,0,-1,0x0000000000000000,7.5
2023-09-18,10:05:32.640,7.4,0.0,11.69,86,5.0,0.0,,233,2000-00-00 00:00:00,2,4,-246,2,18,917,-1024,41,-617,1,-1,-1,1,-1,-1,0,-1,0x0000000000000000,7.5
2023-09-18,10:05:34.140,7.4,0.0,11.69,89,5.0,0.0,,236,2000-00-00 00:00:00,2,2,-246,1,18,917,-1024,41,-617,1,-1,-1,1,-1,-1,0,-1,0x0000000000000000,7.5
2023-09-18,10:05:35.640,7.4,0.0,11.69,89,5.0,0.0,,239,2000-00-00 00:00:00,2,4,-244,2,17,918,-1024,41,-618,1,-1,-1,1,-1,-1,0,-1,0x0000000000000000,7.5
2023-09-18,10:05:37.140,7.4,0.0,11.68,89,5.0,0.0,,243,2000-00-00 00:00:00,2,4,-248,2,19,917,-1024,42,-617,1,-1,-1,1,-1,-1,0,-1,0x0000000000000000,7.5
2023-09-18,10:05:38.640,7.4,0.0,11.68,90,5.0,0.0,,246,2000-00-00 00:00:00,1,4,-243,4,18,918,-1024,41,-616,1,-1,-1,1,-1,-1,0,-1,0x0000000000000000,7.5
2023-09-18,10:05:40.140,7.3,0.0,11.68,90,5.0,0.0,,249,2000-00-00 00:00:00,7,4,-244,2,18,917,-1024,41,-617,1,-1,-1,1,-1,-1,0,-1,0x0000000000000000,7.5
2023-09-18,10:05:41.640,7.4,0.0,11.68,89,5.0,0.0,,252,2000-00-00 00:00:00,2,2,-244,2,18,917,-1024,42,-618,1,-1,-1,1,-1,-1,0,-1,0x0000000000000000,7.5
2023-09-18,10:05:43.140,7.3,0.0,11.68,89,5.0,0.0,,255,2000-00-00 00:00:00,2,4,-244,2,18,917,-1024,41,-617,1,-1,-1,1,-1,-1,0,-1,0x0000000000000000,7.5
2023-09-18,10:05:44.640,7.3,0.0,11.68,87,5.0,0.0,,258,2000-00-00 00:00:00,5,5,-244,2,19,916,-1024,40,-616,1,-1,-1,1,-1,-1,0,-1,0x0000000000000000,7.5
2023-09-18,10:05:46.140,7.3,0.0,11.68,89,5.0,0.0,,261,2000-00-00 00:00:00,0,2,-246,4,19,916,-1024,41,-616,1,-1,-1,1,-1,-1,0,-1,0x0000000000000000,7.5
2023-09-18,10:05:47.640,7.3,0.0,11.68,89,5.0,0.0,,264,2000-00-00 00:00:00,2,2,-246,2,19,916,-1024,41,-618,1,-1,-1,1,-1,-1,0,-1,0x0000000000000000,7.5
2023-09-18,10:05:49.140,7.3,0.0,11.67,89,5.0,0.0,,267,2000-00-00 00:00:00,2,5,-244,2,18,918,-1024,40,-617,1,-1,-1,1,-1,-1,0,-1,0x0000000000000000,7.5
2023-09-18,10:05:50.640,7.3,0.0,11.67,89,5.0,0.0,,270,2000-00-00 00:00:00,2,5,-244,1,18,917,-1024,40,-618,1,-1,-1,1,-1,-1,0,-1,0x0000000000000000,7.5
2023-09-18,10:05:52.140,7.3,0.0,11.67,90,5.0,0.0,,273,2000-00-00 00:00:00,4,4,-244,1,18,917,-1024,40,-617,1,-1,-1,1,-1,-1,0,-1,0x0000000000000000,7.5
2023-09-18,10:05:53.640,7.3,0.0,11.67,89,5.0,0.0,,276,2000-00-00 00:00:00,2,5,-244,2,18,918,-1024,41,-616,1,-1,-1,1,-1,-1,0,-1,0x0000000000000000,7.5
2023-09-18,10:05:55.140,7.3,0.0,11.67,88,5.0,0.0,,279,2000-00-00 00:00:00,2,4,-243,2,18,917,-1024,41,-617,1,-1,-1,1,-1,-1,0,-1,0x0000000000000000,7.5
2023-09-18,10:05:56.640,7.3,0.0,11.67,88,5.0,0.0,,282,2000-00-00 00:00:00,1,4,-246,2,18,917,-1024,41,-617,1,-1,-1,1,-1,-1,0,-1,0x0000000000000000,7.5
2023-09-18,10:05:58.140,7.3,0.0,11.67,88,5.0,0.0,,285,2000-00-00 00:00:00,2,5,-244,4,19,917,-1024,40,-617,1,-1,-1,1,-1,-1,0,-1,0x0000000000000000,7.5
2023-09-18,10:05:59.640,7.3,0.0,11.66,89,5.0,0.0,,288,2000-00-00 00:00:00,5,5,-244,2,18,917,-1024,41,-617,1,-1,-1,1,-1,-1,0,-1,0x0000000000000000,7.5
2023-09-18,10:06:01.140,7.3,0.0,11.66,89,5.0,0.0,,291,2000-00-00 00:00:00,4,5,-244,1,19,917,-1024,41,-617,1,-1,-1,1,-1,-1,0,-1,0x0000000000000000,7.5
2023-09-18,10:06:02.640,7.3,0.0,11.66,90,5.0,0.0,,294,2000-00-00 00:00:00,2,4,-244,2,18,917,-1024,41,-617,1,-1,-1,1,-1,-1,0,-1,0x0000000000000000,7.5
2023-09-18,10:06:04.140,7.3,0.0,11.65,89,5.0,0.0,,297,2000-00-00 00:00:00,1,4,-244,2,18,917,-1024,40,-617,1,-1,-1,1,-1,-1,0,-1,0x0000000000000000,7.5
2023-09-18,10:06:05.640,7.3,0.0,11.65,88,5.0,0.0,,300,2000-00-00 00:00:00,4,5,-244,2,18,918,-1024,41,-618,1,-1,-1,1,-1,-1,0,-1,0x0000000000000000,7.5
2023-09-18,10:06:07.140,7.3,0.0,11.65,87,5.0,0.0,,303,2000-00-00 00:00:00,4,6,-244,2,19,917,-1024,41,-617,1,-1,-1,1,-1,-1,0,-1,0x0000000000000000,7.5
2023-09-18,10:06:08.640,7.3,0.0,11.65,89,5.0,0.0,,306,2000-00-00 00:00:00,1,5,-244,2,18,917,-1024,41,-619,1,-1,-1,1,-1,-1,0,-1,0x0000000000000000,7.5
2023-09-18,10:06:10.140,7.3,0.0,11.65,89,5.0,0.0,,310,2000-00-00 00:00:00,2,5,-246,1,19,917,-1024,41,-616,1,-1,-1,1,-1,-1,0,-1,0x0000000000000000,7.5
2023-09-18,10:06:11.640,7.3,0.0,11.65,90,5.0,0.0,,313,2000-00-00 00:00:00,1,5,-244,4,18,917,-1024,43,-617,1,-1,-1,1,-1,-1,0,-1,0x0000000000000000,7.5
2023-09-18,10:06:13.140,7.3,0.0,11.65,89,5.0,0.0,,316,2000-00-00 00:00:00,2,4,-244,2,18,917,-1024,40,-617,1,-1,-1,1,-1,-1,0,-1,0x0000000000000000,7.5
2023-09-18,10:06:14.640,7.3,0.0,11.65,90,5.0,0.0,,319,2000-00-00 00:00:00,2,5,-244,4,18,917,-1024,41,-617,1,-1,-1,1,-1,-1,0,-1,0x0000000000000000,7.5
2023-09-18,10:06:16.140,7.3,0.0,11.64,88,5.0,0.0,,322,2000-00-00 00:00:00,4,4,-247,2,19,917,-1024,42,-618,1,-1,-1,1,-1,-1,0,-1,0x0000000000000000,7.5
2023-09-18,10:06:17.640,7.3,0.0,11.64,87,5.0,0.0,,325,2000-00-00 00:00:00,2,4,-244,2,18,917,-1024,41,-616,1,-1,-1,1,-1,-1,0,-1,0x0000000000000000,7.5
2023-09-18,10:06:19.140,7.3,0.0,11.63,89,5.0,0.0,,328,2000-00-00 00:00:00,2,4,-244,1,18,918,-1024,42,-615,1,-1,-1,1,-1,-1,0,-1,0x0000000000000000,7.5
2023-09-18,10:06:20.640,7.3,0.0,11.63,89,5.0,0.0,,331,2000-00-00 00:00:00,4,4,-244,2,18,917,-1024,41,-616,1,-1,-1,1,-1,-1,0,-1,0x0000000000000000,7.5
2023-09-18,10:06:22.140,7.3,0.0,11.63,89,5.0,0.0,,334,2000-00-00 00:00:00,2,5,-244,2,18,917,-1024,40,-617,1,-1,-1,1,-1,-1,0,-1,0x0000000000000000,7.5
2023-09-18,10:06:23.640,7.3,0.0,11.63,90,5.0,0.0,,337,2000-00-00 00:00:00,5,5,-244,2,19,916,-1024,41,-617,1,-1,-1,1,-1,-1,0,-1,0x0000000000000000,7.5
2023-09-18,10:06:25.140,7.3,0.0,11.63,89,5.0,0.0,,340,2000-00-00 00:00:00,1,4,-243,1,18,918,-1024,41,-616,1,-1,-1,1,-1,-1,0,-1,0x0000000000000000,7.5
2023-09-18,10:06:26.640,7.3,0.0,11.63,88,5.0,0.0,,343,2000-00-00 00:00:00,7,4,-244,2,18,918,-1024,41,-618,1,-1,-1,1,-1,-1,0,-1,0x0000000000000000,7.5
2023-09-18,10:06:28.140,7.3,0.0,11.62,88,5.0,0.0,,346,2000-00-00 00:00:00,4,4,-244,2,18,917,-1024,42,-618,1,-1,-1,1,-1,-1,0,-1,0x0000000000000000,7.5
2023-09-18,10:06:29.640,7.3,0.0,11.62,88,5.0,0.0,,349,2000-00-00 00:00:00,4,2,-246,2,18,917,-1024,40,-617,1,-1,-1,1,-1,-1,0,-1,0x0000000000000000,7.5
2023-09-18,10:06:31.140,7.3,0.0,11.61,89,5.0,0.0,,352,2000-00-00 00:00:00,2,4,-244,1,18,916,-1024,41,-616,1,-1,-1,1,-1,-1,0,-1,0x0000000000000000,7.5
2023-09-18,10:06:32.640,7.3,0.0,11.62,89,5.0,0.0,,355,2000-00-00 00:00:00,2,4,-246,2,19,917,-1024,41,-617,1,-1,-1,1,-1,-1,0,-1,0x0000000000000000,7.5
2023-09-18,10:06:34.140,7.3,0.0,11.61,89,5.0,0.0,,358,2000-00-00 00:00:00,2,4,-244,2,18,918,-1024,41,-618,1,-1,-1,1,-1,-1,0,-1,0x0000000000000000,7.5
2023-09-18,10:06:35.640,7.3,0.0,11.61,90,5.0,0.0,,361,2000-00-00 00:00:00,2,4,-247,2,18,917,-1024,41,-616,1,-1,-1,1,-1,-1,0,-1,0x0000000000000000,7.5
2023-09-18,10:06:37.140,7.3,0.0,11.61,89,5.0,0.0,,364,2000-00-00 00:00:00,1,4,-244,4,18,917,-1024,41,-616,1,-1,-1,1,-1,-1,0,-1,0x0000000000000000,7.5
2023-09-18,10:06:38.640,7.3,0.0,11.61,89,5.0,0.0,,367,2000-00-00 00:00:00,1,4,-243,2,18,917,-1024,41,-617,1,-1,-1,1,-1,-1,0,-1,0x0000000000000000,7.5
2023-09-18,10:06:40.140,7.3,0.0,11.61,87,5.0,0.0,,370,2000-00-00 00:00:00,4,4,-246,2,18,917,-1024,42,-617,1,-1,-1,1,-1,-1,0,-1,0x0000000000000000,7.5
2023-09-18,10:06:41.640,7.3,0.0,11.61,89,5.0,0.0,,373,2000-00-00 00:00:00,2,4,-244,2,18,916,-1024,42,-616,1,-1,-1,1,-1,-1,0,-1,0x0000000000000000,7.5
2023-09-18,10:06:43.140,7.3,0.0,11.61,88,5.0,0.0,,376,2000-00-00 00:00:00,5,6,-246,2,18,917,-1024,41,-617,1,-1,-1,1,-1,-1,0,-1,0x0000000000000000,7.5
2023-09-18,10:06:44.640,7.3,0.0,11.61,88,5.0,0.0,,379,2000-00-00 00:00:00,0,4,-247,1,18,917,-1024,41,-618,1,-1,-1,1,-1,-1,0,-1,0x0000000000000000,7.5
2023-09-18,10:06:46.140,7.3,0.0,11.60,88,5.0,0.0,,382,2000-00-00 00:00:00,4,4,-247,2,19,917,-1024,41,-616,1,-1,-1,1,-1,-1,0,-1,0x0000000000000000,7.5
2023-09-18,10:06:47.640,7.3,0.0,11.60,90,5.0,0.0,,386,2000-00-00 00:00:00,4,4,-244,2,17,916,-1024,41,-618,1,-1,-1,1,-1,-1,0,-1,0x0000000000000000,7.5
2023-09-18,10:06:49.140,7.3,0.0,11.60,89,5.0,0.0,,389,2000-00-00 00:00:00,4,4,-246,2,19,917,-1024,43,-616,1,-1,-1,1,-1,-1,0,-1,0x0000000000000000,7.5
2023-09-18,10:06:50.640,7.2,0.0,11.60,90,5.0,0.0,,392,2000-00-00 00:00:00,1,4,-243,2,19,917,-1024,40,-617,1,-1,-1,1,-1,-1,0,-1,0x0000000000000000,7.5
2023-09-18,10:06:52.140,7.2,0.0,11.60,90,5.0,0.0,,395,2000-00-00 00:00:00,2,4,-246,2,18,917,-1024,41,-617,1,-1,-1,1,-1,-1,0,-1,0x0000000000000000,7.5
2023-09-18,10:06:53.640,7.3,0.0,11.60,89,5.0,0.0,,398,2000-00-00 00:00:00,2,4,-244,4,18,916,-1024,41,-616,1,-1,-1,1,-1,-1,0,-1,0x0000000000000000,7.5
2023-09-18,10:06:55.140,7.3,0.0,11.60,90,5.0,0.0,,401,2000-00-00 00:00:00,-7,4,-246,0,20,917,-1024,41,-617,1,-1,-1,1,-1,-1,0,-1,0x0000000000000000,7.5
2023-09-18,10:06:56.640,6.8,0.0,11.60,90,5.0,0.0,,404,2000-00-00 00:00:00,1,4,-258,2,18,917,-1024,41,-617,1,-1,-1,1,-1,-1,0,-1,0x0000000000000000,7.5